Location: Étouvelles
(49.5207°N, 3.5808°E)
Time: 09:08:46
(UTC+00:00)

RESURS DK-1 - Pass Details

Date: 03 February 2023
Orbit: 549 x 557 km, 69.9° (Epoch: 23 March)

Event Time Altitude Azimuth Distance (km) Brightness Sun altitude
Rises 18:09:32 0° 330° (NNW) 2,741 6.2 -14.0°
Reaches altitude 10° 18:11:45 10° 333° (NNW) 1,844 5.2 -14.4°
Maximum altitude 18:15:52 72° 58° (ENE) 590 2.2 -15.0°
Drops below altitude 10° 18:19:58 10° 143° (SE) 1,837 4.7 -15.7°
Enters shadow 18:20:16 - 144° (SE) 1,958 4.8 -15.8°
